Date String (YYYY-MM-DD hh:mm:ss) UTC,Instrument flags,absolute air pressure of the measurement (hPa),sample flow rate (lpm),inlet stack bypass flow (lpm),air temperature of the measurement (°C),ambient temperature measured by the external sensor (°C),aerosol sample conditioner tube jacket temperature (°C),OPC LED temperature (°C),internal box temperature (°C),relative humidity of the measurement (%),span deviation,mass concentration of particles derived from Lorenz-Mie calculation of OPC scattering (μg/m³),mass concentration of particles derived from Lorenz-Mie calculation of OPC scattering (μg/m³),mass concentration of particles derived from Lorenz-Mie calculation of OPC scattering (μg/m³)
DateTimeUTC,F1_M11,P_M11,Q1_M11,Q2_M11,T1_M11,T2_M11,T3_M11,T4_M11,T5_M11,U1_M11,ZSPAN_M11,X0_M11,X2_M11,X1_M11
2023-12-04 20:00:00,SystemResetWarning,0827.2,5.01,000.00,021.0,020.4,000.0,029.2,022.3,15.4,0000.0,0000.91,0000.39,0000.19
2023-12-04 20:01:00,SystemResetWarning,0827.2,5.01,000.00,021.0,020.4,000.0,029.2,022.4,15.0,0000.0,0000.78,0000.35,0000.18
2023-12-04 20:02:00,SystemResetWarning,0827.3,5.01,000.00,021.0,020.4,000.0,029.2,022.4,15.0,0000.0,0000.82,0000.35,0000.18
2023-12-04 20:03:00,SystemResetWarning,0827.2,5.00,000.00,021.0,020.4,000.0,029.2,022.4,15.1,0000.0,0000.76,0000.36,0000.18
2023-12-04 20:04:00,SystemResetWarning,0827.1,4.99,000.00,021.1,020.4,000.0,029.2,022.4,15.0,0000.0,0000.83,0000.39,0000.18
2023-12-04 20:05:00,SystemResetWarning,0827.2,5.00,000.00,021.1,020.4,000.0,029.3,022.5,15.3,0000.0,0000.83,0000.39,0000.18
2023-12-04 20:06:00,SystemResetWarning,0827.3,5.00,000.00,021.1,020.5,000.0,029.3,022.5,15.6,0000.0,0000.78,0000.37,0000.17
2023-12-04 20:07:00,SystemResetWarning,0827.2,5.01,000.00,021.1,020.5,000.0,029.3,022.5,15.6,0000.0,0000.79,0000.38,0000.17
2023-12-04 20:08:00,SystemResetWarning,0827.2,5.00,000.00,021.1,020.5,000.0,029.3,022.5,14.8,0000.0,0000.86,0000.39,0000.17
2023-12-04 20:09:00,SystemResetWarning,0827.2,5.00,000.00,021.2,020.5,000.0,029.3,022.5,14.2,0000.0,0000.82,0000.37,0000.17
2023-12-04 20:10:00,SystemResetWarning,0827.3,4.99,000.00,021.2,020.6,000.0,029.3,022.6,14.5,0000.0,0000.92,0000.33,0000.17
2023-12-04 20:11:00,SystemResetWarning,0827.4,5.00,000.00,021.2,020.6,000.0,029.4,022.6,15.2,0000.0,0002.17,0000.34,0000.18
2023-12-04 20:12:00,SystemResetWarning,0827.4,5.00,000.00,021.2,020.6,000.0,029.4,022.6,15.4,0000.0,0002.26,0000.35,0000.18
2023-12-04 20:13:00,SystemResetWarning,0827.3,5.00,000.00,021.2,020.6,000.0,029.4,022.6,15.6,0000.0,0002.17,0000.34,0000.18
2023-12-04 20:14:00,SystemResetWarning,0827.4,5.01,000.00,021.3,020.7,000.0,029.4,022.6,15.4,0000.0,0002.09,0000.32,0000.18
2023-12-04 20:15:00,SystemResetWarning,0827.4,5.00,000.00,021.3,020.7,000.0,029.4,022.6,15.2,0000.0,0002.04,0000.30,0000.18
2023-12-04 20:16:00,SystemResetWarning,0827.4,5.00,000.00,021.3,020.7,000.0,029.4,022.7,15.1,0000.0,0002.07,0000.31,0000.18
2023-12-04 20:17:00,SystemResetWarning,0827.4,4.99,000.00,021.3,020.7,000.0,029.5,022.7,15.3,0000.0,0002.07,0000.31,0000.18
2023-12-04 20:18:00,SystemResetWarning,0827.5,5.00,000.00,021.3,020.8,000.0,029.5,022.7,15.2,0000.0,0002.05,0000.29,0000.18
2023-12-04 20:19:00,SystemResetWarning,0827.6,4.99,000.00,021.4,020.8,000.0,029.5,022.8,15.5,0000.0,0001.96,0000.28,0000.18
2023-12-04 20:20:00,SystemResetWarning,0827.7,4.99,000.00,021.4,020.8,000.0,029.5,022.8,15.8,0000.0,0001.92,0000.27,0000.18
2023-12-04 20:21:00,SystemResetWarning,0827.7,4.99,000.00,021.4,020.8,000.0,029.5,022.8,15.6,0000.0,0001.89,0000.26,0000.18
2023-12-04 20:22:00,SystemResetWarning,0827.7,4.99,000.00,021.4,020.8,000.0,029.6,022.8,15.6,0000.0,0000.55,0000.25,0000.18
2023-12-04 20:23:00,SystemResetWarning,0827.7,5.00,000.00,021.5,020.9,000.0,029.6,022.8,15.3,0000.0,0000.44,0000.26,0000.18
2023-12-04 20:24:00,SystemResetWarning,0827.7,5.01,000.00,021.5,020.9,000.0,029.6,022.9,15.1,0000.0,0000.41,0000.26,0000.19
2023-12-04 20:25:00,SystemResetWarning,0827.7,5.00,000.00,021.5,020.9,000.0,029.6,022.9,15.2,0000.0,0000.48,0000.28,0000.19
2023-12-04 20:26:00,SystemResetWarning,0827.8,5.01,000.00,021.5,021.0,000.0,029.6,022.9,15.3,0000.0,0000.49,0000.28,0000.18
2023-12-04 20:27:00,SystemResetWarning,0827.7,5.00,000.00,021.5,021.0,000.0,029.7,022.9,15.4,0000.0,0000.52,0000.28,0000.19
2023-12-04 20:28:00,SystemResetWarning,0827.7,4.99,000.00,021.6,021.0,000.0,029.7,023.0,15.5,0000.0,0000.55,0000.28,0000.19
2023-12-04 20:29:00,SystemResetWarning,0827.7,4.99,000.00,021.6,021.0,000.0,029.7,023.0,15.5,0000.0,0000.78,0000.31,0000.19
2023-12-04 20:30:00,SystemResetWarning,0827.8,5.00,000.00,021.6,021.0,000.0,029.7,023.0,15.2,0000.0,0001.66,0000.32,0000.19
2023-12-04 20:31:00,SystemResetWarning,0827.7,5.00,000.00,021.6,021.1,000.0,029.7,023.0,14.8,0000.0,0001.68,0000.33,0000.19
2023-12-04 20:32:00,SystemResetWarning,0827.8,5.00,000.00,021.6,021.1,000.0,029.8,023.0,14.9,0000.0,0002.57,0000.38,0000.19
2023-12-04 20:33:00,SystemResetWarning,0827.8,5.00,000.00,021.7,021.1,000.0,029.8,023.1,15.0,0000.0,0002.72,0000.40,0000.19
2023-12-04 20:34:00,SystemResetWarning,0827.7,5.00,000.00,021.7,021.1,000.0,029.8,023.1,14.9,0000.0,0002.70,0000.39,0000.19
2023-12-04 20:35:00,SystemResetWarning,0827.7,5.00,000.00,021.7,021.1,000.0,029.8,023.1,14.9,0000.0,0002.67,0000.38,0000.19
2023-12-04 20:36:00,SystemResetWarning,0827.7,5.00,000.00,021.7,021.1,000.0,029.8,023.1,14.9,0000.0,0002.64,0000.37,0000.19
2023-12-04 20:37:00,SystemResetWarning,0827.7,5.00,000.00,021.7,021.1,000.0,029.8,023.1,15.1,0000.0,0002.59,0000.36,0000.19
2023-12-04 20:38:00,SystemResetWarning,0827.7,5.00,000.00,021.7,021.1,000.0,029.9,023.1,15.1,0000.0,0002.64,0000.37,0000.19
2023-12-04 20:39:00,SystemResetWarning,0827.7,4.99,000.00,021.7,021.1,000.0,029.9,023.1,15.2,0000.0,0004.03,0000.39,0000.19
2023-12-04 20:40:00,SystemResetWarning,0827.7,5.00,000.00,021.7,021.1,000.0,029.9,023.1,15.2,0000.0,0004.26,0000.39,0000.19
2023-12-04 20:41:00,SystemResetWarning,0827.7,5.00,000.00,021.8,021.1,000.0,029.9,023.1,15.2,0000.0,0003.55,0000.37,0000.19
2023-12-04 20:42:00,SystemResetWarning,0827.5,5.00,000.00,021.8,021.1,000.0,029.9,023.1,15.1,0000.0,0003.51,0000.39,0000.20
2023-12-04 20:43:00,SystemResetWarning,0827.5,5.00,000.00,021.8,021.1,000.0,029.9,023.1,15.2,0000.0,0002.84,0000.38,0000.20
2023-12-04 20:44:00,SystemResetWarning,0827.5,5.00,000.00,021.8,021.2,000.0,029.9,023.1,15.2,0000.0,0002.62,0000.36,0000.20
2023-12-04 20:45:00,SystemResetWarning,0827.4,5.01,000.00,021.8,021.2,000.0,030.0,023.2,15.2,0000.0,0002.62,0000.35,0000.19
2023-12-04 20:46:00,SystemResetWarning,0827.5,5.00,000.00,021.8,021.2,000.0,030.0,023.1,15.0,0000.0,0002.64,0000.36,0000.19
2023-12-04 20:47:00,SystemResetWarning,0827.5,5.00,000.00,021.8,021.2,000.0,030.0,023.2,15.0,0000.0,0002.65,0000.37,0000.19
2023-12-04 20:48:00,SystemResetWarning,0827.5,5.00,000.00,021.8,021.2,000.0,030.0,023.2,14.9,0000.0,0002.61,0000.35,0000.19
2023-12-04 20:49:00,SystemResetWarning,0827.6,5.00,000.00,021.9,021.2,000.0,030.0,023.2,14.8,0000.0,0002.65,0000.36,0000.19
2023-12-04 20:50:00,SystemResetWarning,0827.7,5.00,000.00,021.9,021.2,000.0,030.0,023.2,14.7,0000.0,0001.29,0000.35,0000.19
2023-12-04 20:51:00,SystemResetWarning,0827.7,5.00,000.00,021.9,021.2,000.0,030.0,023.2,15.0,0000.0,0001.00,0000.35,0000.19
2023-12-04 20:52:00,SystemResetWarning,0827.9,4.99,000.00,021.9,021.3,000.0,030.1,023.3,15.2,0000.0,0000.86,0000.35,0000.19
2023-12-04 20:53:00,SystemResetWarning,0827.8,4.99,000.00,021.9,021.3,000.0,030.1,023.3,14.9,0000.0,0000.76,0000.35,0000.19
2023-12-04 20:54:00,SystemResetWarning,0827.8,4.99,000.00,021.9,021.3,000.0,030.1,023.3,15.0,0000.0,0000.62,0000.32,0000.19
2023-12-04 20:55:00,SystemResetWarning,0827.9,4.99,000.00,022.0,021.3,000.0,030.1,023.3,15.0,0000.0,0000.61,0000.32,0000.19
2023-12-04 20:56:00,SystemResetWarning,0827.9,5.01,000.00,022.0,021.3,000.0,030.1,023.3,14.9,0000.0,0000.62,0000.33,0000.20
2023-12-04 20:57:00,SystemResetWarning,0828.1,5.00,000.00,022.0,021.4,000.0,030.1,023.3,14.8,0000.0,0000.65,0000.33,0000.20
2023-12-04 20:58:00,SystemResetWarning,0828.1,5.00,000.00,022.0,021.4,000.0,030.2,023.4,15.0,0000.0,0000.76,0000.34,0000.20
2023-12-04 20:59:00,SystemResetWarning,0828.1,4.99,000.00,022.0,021.4,000.0,030.2,023.4,15.0,0000.0,0000.77,0000.35,0000.21
